Wind_Speed
18 17 17 16 21 24 24 21 19 17 12 13 17 17 15 15 17 18 20 20 21 22 29 27 26 22 15 10 12 12 10 19 19 11 6 6 7 5 6 8 9 20 14 15 20 18 18 22 21 11 12 12 22 29
17 15 16 15 17 21 23 21 18 14 9 7 10 16 19 19 20 20 23 25 20 18 18 22 23 24 21 19 18 19 17 19 19 17 14 8 7 9 5 6 9 10 14 15 12 13 20 23 5 4 6 22 20 25
15 13 14 14 16 20 21 21 17 14 10 3 4 9 12 15 17 19 20 22 25 16 12 19 19 18 14 14 13 16 15 8 18 14 14 12 7 20 9 11 8 12 10 26 19 16 21 18 8 3 7 17 21 26
13 12 12 13 16 19 20 20 15 13 10 7 4 6 8 10 12 16 17 17 19 15 12 9 8 11 16 16 14 11 9 12 13 14 12 10 11 23 26 20 25 9 8 1 8 7 5 5 8 8 9 16 17 22
12 11 12 12 15 17 20 19 15 10 10 8 7 6 7 10 12 13 18 14 14 16 14 8 14 1 4 8 11 12 14 15 13 15 18 18 12 12 14 27 27 19 16 9 7 3 4 6 2 8 9 13 14 18
10 10 11 12 13 16 19 18 16 9 9 9 7 7 7 10 13 17 15 14 11 15 15 10 19 14 9 3 4 9 11 15 18 11 13 17 17 14 14 14 23 23 16 8 7 1 4 2 1 10 10 8 9 17
9 9 10 11 13 14 17 18 16 12 9 9 9 8 8 10 13 13 13 14 10 12 12 12 12 19 16 4 5 1 4 9 13 15 12 13 13 16 19 20 21 25 25 19 16 6 5 4 1 5 11 11 12 13
8 8 9 10 12 12 14 16 15 12 11 10 10 9 9 10 9 10 12 11 8 8 8 9 12 10 20 17 13 8 7 9 6 14 13 12 11 11 11 12 14 18 20 19 18 14 13 11 4 5 5 11 13 15
8 7 8 9 10 10 13 15 14 13 12 10 10 10 8 9 13 13 11 9 6 5 6 11 18 14 20 15 12 9 3 5 6 8 10 12 13 9 12 9 11 17 19 21 21 19 14 14 16 8 4 10 20 21
7 6 6 8 7 9 11 13 14 13 12 11 12 12 10 15 13 9 5 8 4 4 6 15 14 17 16 15 9 8 3 1 3 6 5 10 10 7 9 10 10 13 17 19 19 21 18 19 17 18 13 4 8 15
7 5 5 6 6 8 11 13 14 14 13 13 13 12 11 10 7 5 6 7 6 5 7 17 13 15 16 10 9 5 6 4 2 3 2 4 6 6 8 9 11 9 13 18 21 22 22 23 19 18 16 12 7 0
7 5 5 5 6 9 11 13 14 15 14 13 13 9 7 6 5 5 7 6 6 5 13 16 15 17 14 10 5 5 4 3 3 6 1 3 5 7 7 8 10 12 11 13 16 18 20 19 20 18 17 16 13 10
7 5 5 5 6 8 10 12 12 15 14 12 9 5 5 4 5 4 7 8 10 13 13 15 14 17 10 7 6 5 2 4 5 2 3 4 8 5 6 7 6 9 11 10 13 15 16 17 17 16 17 15 14 13
6 4 5 6 7 9 11 12 13 14 14 10 6 4 3 3 4 10 13 13 14 17 15 16 14 13 13 8 4 3 5 3 3 3 4 7 8 7 7 7 6 6 7 7 8 11 14 16 15 15 15 15 14 11
6 5 7 8 9 10 11 12 13 14 14 8 4 2 3 5 9 12 15 17 15 19 20 19 16 11 9 6 4 5 2 3 2 3 9 9 10 7 5 6 6 7 6 6 6 7 8 12 14 15 15 14 13 12
6 6 7 9 10 11 12 12 13 15 14 5 3 6 8 11 13 16 18 19 15 18 19 18 10 7 7 4 3 2 2 1 3 7 6 10 7 4 6 8 7 5 6 5 6 6 7 8 11 13 15 15 13 11
7 6 7 9 11 12 12 11 12 13 5 6 7 9 9 13 15 18 21 23 26 30 25 14 5 3 4 4 2 2 1 4 5 8 6 4 5 7 8 8 5 3 5 5 5 6 7 7 9 11 14 15 13 13
8 7 7 9 9 10 8 7 9 6 8 8 8 7 11 16 18 22 25 23 23 23 22 24 15 16 8 1 3 11 13 3 3 3 5 6 8 10 12 12 7 6 7 7 4 6 6 5 7 9 12 13 12 11
8 7 7 6 7 6 7 5 5 6 5 6 8 10 16 19 22 22 22 22 19 17 15 12 7 11 6 3 7 3 3 3 1 3 4 6 8 10 13 15 14 9 9 8 6 2 5 4 4 5 7 8 8 8
4 5 5 5 6 6 5 3 5 5 8 9 11 15 18 19 18 18 17 19 18 13 16 14 11 7 8 10 7 5 5 7 10 7 0 5 11 13 14 12 10 10 10 12 9 8 4 2 3 4 6 6 5 6
4 4 5 6 6 4 3 1 4 7 7 10 15 18 13 12 13 13 16 16 14 15 14 13 13 10 8 7 7 8 11 13 13 2 2 6 12 9 9 11 10 4 4 6 7 14 3 2 3 3 4 4 5 5
2 3 3 3 2 1 1 1 4 7 8 10 15 16 11 12 15 14 17 13 14 15 11 12 12 10 8 11 13 13 14 11 11 7 8 9 3 2 3 2 3 2 2 4 6 7 3 5 4 2 3 5 5 6
3 4 3 2 2 3 1 3 5 7 6 9 12 14 17 19 16 16 10 19 18 18 15 13 11 9 10 13 12 13 12 10 11 13 17 17 6 4 5 3 3 2 3 6 7 4 10 13 16 5 3 2 3 4
3 0 4 3 3 2 0 3 5 6 5 10 12 13 16 20 18 12 8 19 20 17 15 13 10 13 14 15 13 13 14 12 10 15 12 9 5 6 15 7 6 7 11 3 1 2 3 4 7 2 5 3 3 2
2 3 3 5 3 1 1 5 7 8 8 10 9 15 14 17 16 7 12 19 21 19 17 16 15 15 13 12 12 15 13 10 7 14 13 16 6 7 5 10 4 8 10 6 3 2 4 2 2 2 5 6 5 3
5 4 4 5 3 1 4 6 8 9 7 7 8 12 14 14 7 7 16 20 21 20 19 17 18 13 17 18 16 15 14 13 10 9 17 12 11 18 12 3 9 6 4 3 5 4 4 5 4 5 4 6 4 1
7 4 6 5 1 3 4 4 5 5 5 5 10 13 10 5 6 17 22 21 20 20 20 19 18 19 18 18 18 16 15 13 10 9 11 11 13 14 12 4 5 3 2 1 0 2 6 4 3 2 3 3 2 2
7 8 7 3 1 2 1 3 6 7 7 7 9 11 7 9 12 19 22 23 24 23 21 20 19 18 17 17 17 16 16 15 12 9 8 8 9 12 8 5 4 0 0 2 5 3 5 6 4 3 2 3 3 1
11 7 4 1 1 0 1 3 5 6 7 9 9 10 13 13 14 17 20 24 26 25 23 22 20 19 19 18 17 15 14 12 6 4 3 8 6 5 8 7 7 8 5 5 4 4 7 7 6 3 1 1 3 3
7 6 4 2 1 1 3 6 8 9 10 10 12 12 12 13 13 16 18 22 24 25 22 19 17 16 16 17 17 16 16 16 15 12 8 6 6 7 6 6 7 6 6 4 4 6 8 7 4 4 4 2 2 2
8 5 4 3 2 2 5 6 7 11 10 8 11 12 14 14 15 16 18 19 20 20 18 16 15 14 14 15 16 16 15 15 15 15 15 15 13 11 9 7 6 4 4 4 4 3 4 4 3 3 4 3 4 2
5 4 3 4 4 2 4 6 8 10 11 9 10 12 13 14 16 16 16 17 18 17 15 13 12 12 11 12 13 13 13 13 13 14 14 14 14 14 13 11 10 8 7 5 4 4 4 4 4 4 5 5 6 6
5 2 3 4 5 6 8 10 12 11 11 9 10 12 13 13 15 14 14 14 15 14 13 11 10 10 10 10 11 11 12 11 11 12 12 12 12 12 12 11 10 9 8 7 6 6 6 6 7 7 7 7 8 8
Wind_Direction
337 348 356 356 4 6 9 11 15 22 41 55 58 58 57 59 53 43 40 32 28 35 41 39 40 38 40 27 13 17 41 11 9 339 297 307 286 289 224 189 195 194 200 216 230 249 255 273 290 222 185 209 199 205
333 344 353 353 359 3 3 5 13 19 34 52 53 53 59 57 52 44 32 28 22 22 34 36 40 43 48 53 61 55 31 20 19 9 353 333 328 2 96 170 165 198 213 219 220 231 245 264 310 0 251 186 167 165
329 337 348 350 355 354 355 357 6 11 12 26 6 40 46 37 31 25 21 17 20 13 14 28 23 32 48 50 52 42 21 12 22 24 4 6 32 54 49 52 197 225 223 238 250 264 263 246 304 4 201 189 168 158
324 329 342 345 349 349 352 356 360 5 6 358 308 324 7 19 16 15 8 5 10 17 8 309 0 28 51 52 55 52 45 19 34 35 49 40 43 60 50 44 42 47 22 253 237 294 248 253 267 257 197 182 172 166
318 321 333 341 347 346 349 355 358 355 359 357 349 319 322 348 353 355 354 0 8 8 353 310 339 282 25 65 65 59 49 39 33 29 35 37 41 41 41 42 31 28 21 24 310 359 320 297 287 223 201 192 181 173
313 314 328 336 345 346 348 354 1 355 344 347 341 345 343 343 346 342 347 2 0 1 3 3 29 15 309 222 79 73 59 41 34 46 47 38 49 53 32 36 12 9 34 35 8 272 13 210 248 225 221 200 194 187
307 307 320 332 343 342 350 356 3 0 344 339 338 330 331 336 344 353 349 349 357 7 9 358 0 2 11 267 252 279 9 14 24 39 42 46 50 54 40 28 16 4 11 36 45 65 39 66 356 224 235 215 208 205
300 302 312 325 338 338 349 353 1 1 353 343 344 342 335 334 342 342 343 341 351 6 20 6 349 357 1 0 358 262 292 333 350 29 35 45 49 42 34 18 21 13 24 32 35 42 42 31 331 269 248 243 233 224
294 302 307 324 333 336 344 349 354 355 351 346 342 343 343 343 336 325 325 337 328 348 7 4 2 350 349 358 358 351 289 316 317 354 23 33 49 38 24 26 25 13 38 39 33 32 38 45 43 30 266 239 247 239
287 291 304 328 333 340 344 349 353 349 344 346 340 336 338 332 331 336 333 338 329 326 313 347 348 348 350 340 352 354 314 267 320 326 348 4 35 13 18 30 37 14 29 36 38 40 41 42 43 40 39 60 235 235
279 276 298 317 323 334 341 348 355 349 340 337 340 346 339 340 351 3 351 345 337 327 318 336 338 336 336 332 326 338 321 326 274 286 36 339 21 349 6 22 32 26 18 27 31 32 27 29 38 45 46 41 45 180
266 260 280 294 309 321 333 338 354 351 341 339 336 340 350 15 7 2 347 340 328 326 320 331 319 328 326 318 295 287 287 288 259 310 234 331 338 350 15 19 20 23 18 18 26 27 29 30 29 30 37 40 40 51
258 258 274 286 304 316 331 338 346 347 342 337 342 349 347 358 5 349 330 340 327 317 318 314 316 321 320 313 276 271 280 254 283 254 277 337 302 339 352 19 20 12 17 9 6 12 25 23 24 24 22 29 31 30
255 257 267 281 304 316 322 328 338 339 343 341 335 323 347 335 334 332 321 307 309 320 323 319 305 296 299 291 243 248 231 243 253 253 336 318 300 323 338 360 10 6 15 16 1 6 4 18 20 21 20 19 22 26
251 259 271 287 300 313 314 317 328 333 334 332 311 280 293 303 323 322 323 332 322 325 327 327 314 287 267 250 236 230 244 228 218 326 317 301 309 309 306 330 344 344 343 4 13 5 359 3 13 14 17 13 9 8
250 267 283 293 308 320 314 314 319 323 325 317 304 302 305 317 320 321 320 319 310 310 305 309 294 261 253 247 240 228 259 182 318 305 304 313 314 309 316 310 303 305 324 342 4 3 2 357 352 7 12 16 9 7
254 269 287 298 313 317 311 304 309 320 310 322 326 311 305 313 324 323 316 313 306 312 318 287 247 297 286 245 239 172 151 331 333 326 319 319 323 321 320 314 289 261 296 307 336 352 349 346 347 353 3 8 12 10
265 278 299 310 321 324 315 315 313 308 327 332 324 334 316 321 325 320 317 325 330 326 327 331 315 296 253 258 352 296 299 321 60 20 347 338 336 327 320 323 291 260 268 268 294 338 345 355 11 349 359 12 12 20
262 279 297 310 330 328 330 336 349 337 347 334 351 342 340 333 332 333 335 340 345 348 359 5 4 329 288 324 307 326 115 151 260 283 290 326 340 345 337 317 310 276 256 252 262 290 296 308 312 357 3 12 3 4
252 279 281 293 316 322 324 320 350 3 360 345 352 340 332 327 334 343 356 356 1 9 11 23 33 60 35 40 38 351 320 296 280 269 124 312 327 331 324 322 298 280 258 249 252 252 263 312 341 345 339 356 17 13
281 290 285 287 293 294 283 316 347 353 359 4 355 345 338 353 358 8 6 14 5 27 30 38 45 61 44 38 13 342 319 324 348 281 292 286 295 303 317 329 333 324 234 227 234 272 250 224 287 324 337 344 3 22
312 318 308 285 276 207 138 315 326 336 341 352 353 359 359 353 348 353 2 4 11 8 5 12 5 8 7 350 338 329 320 310 316 277 263 288 302 300 315 351 11 41 253 273 287 291 250 246 244 270 314 344 344 328
314 310 275 209 163 189 291 345 10 13 15 360 359 1 5 357 348 344 0 12 10 5 3 351 344 347 347 341 346 345 335 318 308 305 310 300 314 292 269 276 253 239 263 288 309 263 248 269 274 220 289 333 310 331
308 41 149 159 174 167 347 1 9 15 359 356 358 357 2 356 349 351 350 357 1 360 355 356 348 351 353 354 349 332 333 313 314 312 309 300 248 276 322 297 249 278 272 274 273 227 248 258 306 346 297 283 254 313
190 170 159 164 166 178 327 356 354 356 349 350 345 355 349 348 342 332 347 354 353 352 351 348 351 345 354 356 351 335 348 333 299 304 298 317 282 285 278 309 323 331 308 211 122 248 273 262 254 160 278 289 291 321
184 182 177 179 190 249 334 342 337 338 345 355 353 345 348 342 344 340 347 349 349 348 345 342 341 350 335 337 336 334 325 320 303 291 291 312 301 296 314 307 280 338 10 127 166 173 221 222 236 273 298 323 320 77
189 185 182 172 199 324 329 354 356 359 353 344 345 340 335 336 338 348 352 354 353 351 350 349 348 346 346 347 347 347 347 345 335 315 302 304 321 336 336 300 23 34 65 100 334 188 233 200 216 243 251 277 306 107
187 179 174 177 302 357 67 43 24 14 357 345 338 336 316 305 316 337 346 356 358 356 356 358 358 358 358 0 3 360 358 359 358 352 341 326 320 327 5 39 30 263 192 95 90 133 194 179 204 222 289 285 310 68
156 159 174 192 59 119 27 9 0 351 345 336 322 324 328 328 319 325 340 351 354 355 358 1 2 5 12 13 12 16 18 19 11 22 350 344 37 42 46 57 77 101 88 85 61 91 172 184 180 198 245 225 278 279
168 171 172 165 81 55 354 345 340 335 325 320 328 328 318 321 331 335 333 339 346 351 354 357 4 7 8 12 19 24 26 28 32 39 47 55 53 67 89 80 91 99 95 71 66 55 66 70 79 62 59 35 13 354
175 176 199 234 271 297 326 334 340 347 342 330 336 331 324 316 319 324 327 334 341 346 351 358 8 11 14 18 22 27 30 35 42 48 54 59 62 68 80 96 106 111 104 105 104 86 72 62 32 27 30 26 18 5
198 187 205 267 290 308 323 335 335 337 351 342 342 336 330 322 317 321 326 327 338 344 348 355 9 11 15 23 28 30 33 38 45 51 57 61 64 67 71 76 82 91 96 91 73 58 43 43 23 11 10 6 360 352
182 237 264 268 291 303 311 315 329 330 342 340 341 343 342 331 318 327 321 325 330 337 344 353 11 12 14 21 27 30 33 38 45 52 57 59 61 63 67 68 70 71 68 62 56 47 43 37 30 25 22 22 24 27
Height
3158 3153 3150 3147 3142 3137 3133 3128 3122 3118 3117 3115 3111 3109 3106 3104 3102 3100 3096 3093 3090 3086 3085 3079 3075 3071 3068 3065 3063 3062 3060 3057 3052 3049 3045 3042 3039 3037 3034 3034 3036 3039 3044 3045 3047 3044 3041 3035 3035 3036 3032 3031 3030 3032
3156 3152 3148 3146 3141 3137 3134 3129 3124 3119 3118 3117 3114 3111 3108 3106 3104 3102 3098 3095 3092 3089 3088 3084 3079 3075 3072 3068 3065 3063 3063 3058 3054 3050 3047 3042 3039 3036 3033 3035 3037 3041 3042 3040 3040 3036 3033 3031 3025 3023 3025 3024 3025 3027
3154 3150 3147 3144 3140 3137 3133 3129 3124 3120 3119 3117 3116 3113 3110 3108 3106 3103 3100 3097 3094 3090 3088 3085 3082 3080 3076 3073 3070 3067 3064 3061 3057 3053 3048 3044 3041 3038 3036 3035 3036 3036 3035 3034 3036 3032 3030 3026 3024 3021 3020 3021 3022 3022
3151 3148 3145 3142 3139 3136 3132 3128 3123 3120 3119 3117 3115 3113 3111 3108 3107 3104 3102 3098 3096 3092 3090 3088 3084 3081 3078 3075 3071 3068 3066 3062 3059 3054 3051 3048 3044 3042 3040 3038 3037 3036 3033 3028 3029 3028 3023 3022 3020 3019 3017 3016 3019 3020
3148 3145 3143 3140 3137 3134 3131 3126 3122 3120 3118 3116 3114 3112 3110 3108 3106 3104 3101 3099 3096 3096 3091 3087 3083 3081 3078 3076 3073 3071 3068 3065 3062 3059 3054 3050 3046 3044 3042 3039 3037 3036 3032 3030 3025 3024 3022 3019 3016 3017 3018 3014 3019 3019
3144 3143 3141 3138 3135 3133 3130 3125 3120 3118 3117 3115 3113 3111 3109 3107 3105 3103 3101 3099 3096 3093 3089 3087 3083 3081 3077 3075 3074 3072 3070 3068 3065 3062 3057 3053 3050 3047 3044 3041 3040 3036 3033 3028 3025 3022 3020 3017 3015 3014 3016 3010 3016 3017
3141 3140 3138 3136 3133 3131 3129 3124 3119 3117 3116 3114 3112 3110 3108 3106 3105 3103 3102 3099 3096 3094 3090 3086 3083 3080 3076 3075 3073 3072 3070 3069 3068 3064 3060 3057 3053 3049 3047 3044 3042 3037 3030 3027 3025 3021 3019 3016 3014 3012 3012 3013 3013 3015
3137 3136 3135 3133 3131 3129 3127 3123 3119 3116 3115 3113 3111 3108 3106 3105 3103 3102 3100 3097 3095 3094 3091 3089 3086 3081 3078 3075 3072 3070 3070 3068 3067 3065 3063 3059 3055 3052 3050 3049 3046 3042 3036 3031 3026 3022 3019 3017 3014 3010 3010 3011 3012 3014
3134 3133 3132 3131 3129 3128 3125 3122 3119 3116 3114 3112 3110 3107 3105 3103 3102 3100 3098 3096 3094 3095 3091 3089 3086 3082 3078 3075 3073 3070 3069 3069 3068 3066 3063 3062 3057 3054 3052 3050 3047 3044 3039 3034 3030 3026 3021 3018 3014 3011 3008 3008 3011 3013
3131 3130 3129 3128 3127 3126 3124 3121 3118 3115 3113 3111 3109 3106 3103 3102 3099 3098 3096 3095 3093 3092 3090 3088 3085 3081 3078 3074 3072 3070 3068 3068 3067 3067 3063 3061 3058 3057 3053 3050 3047 3045 3041 3036 3032 3027 3024 3019 3016 3013 3009 3008 3009 3009
3128 3127 3126 3126 3125 3124 3122 3119 3116 3113 3112 3110 3107 3104 3102 3100 3098 3096 3096 3094 3093 3091 3088 3086 3083 3081 3076 3075 3072 3070 3068 3066 3065 3066 3063 3063 3061 3058 3053 3051 3048 3045 3042 3037 3033 3029 3025 3020 3018 3017 3015 3012 3011 3010
3125 3124 3123 3123 3123 3122 3120 3118 3114 3112 3110 3108 3106 3103 3101 3099 3098 3098 3097 3095 3093 3091 3088 3084 3083 3078 3074 3072 3070 3068 3066 3065 3064 3062 3063 3060 3061 3056 3053 3050 3048 3046 3043 3040 3037 3033 3029 3026 3022 3020 3017 3016 3013 3010
3122 3121 3121 3121 3121 3120 3118 3116 3113 3111 3109 3106 3104 3102 3101 3101 3100 3098 3098 3096 3095 3092 3088 3083 3079 3075 3072 3070 3068 3066 3065 3065 3063 3062 3061 3062 3058 3055 3053 3051 3050 3047 3045 3043 3040 3036 3033 3029 3026 3022 3020 3017 3015 3013
3120 3119 3119 3119 3118 3117 3116 3114 3112 3110 3108 3105 3103 3102 3102 3101 3100 3099 3097 3095 3092 3087 3084 3080 3076 3073 3069 3067 3065 3064 3062 3061 3062 3062 3061 3060 3056 3054 3052 3050 3048 3047 3045 3043 3041 3038 3035 3031 3027 3025 3022 3019 3017 3016
3117 3116 3117 3116 3116 3115 3113 3111 3110 3108 3106 3104 3103 3102 3101 3101 3098 3096 3093 3090 3087 3083 3080 3076 3072 3069 3068 3065 3063 3063 3061 3061 3059 3060 3060 3057 3053 3052 3050 3049 3049 3048 3046 3043 3040 3038 3036 3033 3030 3027 3024 3021 3018 3015
3114 3114 3114 3114 3113 3112 3110 3109 3108 3106 3104 3102 3100 3100 3100 3098 3097 3094 3091 3087 3082 3079 3073 3071 3068 3065 3065 3063 3060 3058 3061 3059 3059 3057 3055 3052 3051 3050 3049 3048 3046 3046 3046 3044 3041 3039 3036 3034 3031 3028 3025 3023 3022 3019
3112 3112 3112 3111 3110 3109 3108 3107 3105 3104 3102 3101 3099 3098 3097 3096 3094 3091 3087 3083 3078 3074 3069 3066 3062 3062 3059 3057 3057 3057 3055 3055 3055 3054 3052 3050 3049 3048 3047 3046 3044 3043 3045 3044 3041 3038 3036 3034 3032 3029 3027 3024 3021 3018
3109 3110 3109 3108 3107 3106 3105 3104 3103 3102 3100 3099 3098 3099 3096 3093 3090 3087 3082 3077 3074 3070 3066 3063 3060 3058 3057 3057 3057 3056 3054 3053 3053 3054 3052 3050 3048 3047 3045 3043 3043 3041 3041 3042 3040 3037 3035 3034 3033 3031 3027 3025 3025 3022
3107 3107 3106 3106 3105 3105 3104 3103 3102 3101 3100 3100 3098 3096 3094 3090 3086 3082 3079 3074 3070 3066 3063 3060 3058 3056 3056 3056 3054 3053 3053 3053 3052 3052 3050 3049 3047 3044 3042 3040 3039 3039 3039 3038 3037 3038 3036 3033 3032 3031 3030 3029 3028 3024
3105 3105 3104 3104 3104 3103 3102 3102 3101 3100 3100 3100 3097 3094 3091 3088 3084 3081 3077 3074 3070 3068 3064 3061 3058 3057 3057 3055 3054 3054 3053 3052 3050 3049 3047 3048 3045 3043 3041 3039 3037 3036 3036 3035 3034 3034 3034 3033 3032 3030 3029 3027 3028 3026
3103 3103 3102 3102 3102 3102 3102 3101 3101 3100 3099 3098 3095 3092 3089 3086 3084 3082 3079 3075 3072 3068 3066 3064 3061 3059 3058 3056 3055 3054 3052 3050 3047 3046 3046 3047 3042 3040 3038 3036 3034 3033 3035 3034 3032 3031 3030 3030 3030 3030 3029 3028 3026 3025
3101 3101 3100 3100 3101 3101 3101 3101 3101 3100 3098 3097 3094 3091 3089 3086 3084 3081 3078 3077 3072 3069 3067 3065 3062 3059 3057 3055 3053 3050 3049 3047 3046 3043 3041 3039 3039 3038 3037 3036 3035 3035 3034 3033 3032 3030 3028 3028 3028 3028 3027 3026 3024 3022
3100 3099 3099 3100 3101 3101 3102 3100 3100 3098 3097 3096 3094 3092 3089 3086 3083 3080 3078 3075 3072 3069 3066 3064 3061 3058 3057 3054 3051 3048 3046 3044 3042 3040 3038 3034 3034 3034 3033 3032 3032 3032 3032 3029 3027 3027 3025 3023 3022 3023 3024 3024 3024 3022
3099 3098 3099 3100 3100 3100 3100 3100 3099 3098 3097 3096 3094 3091 3089 3086 3083 3080 3078 3075 3072 3069 3066 3063 3061 3058 3056 3052 3051 3047 3044 3041 3040 3037 3034 3034 3033 3030 3029 3028 3026 3025 3025 3025 3026 3025 3023 3022 3021 3022 3021 3021 3021 3020
3099 3100 3101 3100 3100 3100 3100 3099 3098 3097 3096 3094 3093 3091 3088 3086 3083 3080 3078 3075 3072 3068 3065 3062 3060 3057 3055 3053 3050 3045 3041 3040 3040 3036 3032 3030 3029 3028 3026 3023 3023 3022 3020 3021 3022 3022 3021 3021 3020 3020 3020 3018 3017 3017
3097 3099 3099 3099 3100 3100 3099 3098 3097 3096 3095 3094 3092 3090 3088 3085 3083 3082 3079 3076 3072 3068 3065 3062 3058 3058 3051 3047 3045 3041 3038 3035 3033 3033 3029 3028 3025 3023 3022 3021 3020 3019 3018 3019 3020 3020 3021 3021 3020 3019 3018 3017 3016 3016
3096 3097 3097 3098 3099 3098 3098 3097 3096 3095 3094 3093 3092 3089 3087 3086 3084 3082 3078 3075 3071 3067 3063 3059 3056 3053 3049 3045 3041 3037 3034 3031 3029 3028 3026 3025 3022 3020 3020 3019 3018 3018 3017 3018 3019 3020 3019 3020 3020 3019 3019 3017 3016 3016
3094 3095 3097 3098 3097 3097 3097 3096 3095 3094 3093 3093 3091 3089 3088 3086 3084 3081 3078 3074 3070 3066 3062 3058 3055 3051 3047 3044 3040 3037 3033 3029 3027 3025 3024 3022 3021 3019 3016 3016 3016 3016 3016 3016 3018 3019 3018 3019 3019 3018 3018 3016 3016 3016
3094 3095 3096 3097 3097 3096 3096 3096 3095 3094 3093 3091 3090 3088 3086 3083 3081 3079 3076 3072 3069 3065 3061 3057 3053 3049 3046 3043 3040 3037 3034 3031 3029 3028 3027 3022 3020 3020 3019 3016 3016 3017 3019 3018 3018 3017 3016 3017 3017 3017 3016 3016 3015 3014
3094 3094 3096 3096 3096 3096 3096 3095 3094 3093 3091 3089 3088 3086 3084 3081 3079 3077 3074 3072 3069 3065 3062 3058 3054 3051 3048 3045 3041 3038 3035 3032 3029 3027 3025 3023 3022 3020 3020 3020 3020 3020 3021 3020 3019 3018 3017 3017 3017 3017 3016 3015 3014 3013
3093 3094 3095 3095 3095 3095 3094 3093 3093 3091 3089 3087 3086 3084 3081 3079 3077 3076 3074 3071 3068 3065 3062 3059 3055 3052 3048 3046 3043 3040 3037 3035 3031 3029 3027 3024 3023 3022 3021 3021 3021 3020 3021 3021 3021 3021 3020 3020 3018 3017 3016 3016 3014 3014
3093 3093 3094 3094 3094 3094 3093 3092 3091 3090 3088 3086 3085 3082 3080 3078 3075 3074 3072 3070 3067 3065 3062 3059 3055 3052 3050 3047 3045 3042 3040 3037 3034 3032 3030 3028 3027 3025 3024 3023 3022 3022 3022 3021 3021 3021 3020 3019 3018 3017 3016 3015 3014 3013
3092 3092 3093 3092 3092 3092 3091 3091 3090 3088 3087 3085 3083 3081 3078 3076 3073 3072 3070 3068 3066 3063 3061 3058 3055 3053 3050 3048 3046 3044 3042 3039 3037 3035 3032 3031 3030 3029 3028 3027 3026 3025 3024 3023 3022 3021 3020 3020 3019 3017 3016 3015 3014 3012